Location: Asheville, NC
(35.6000°N, 82.5500°W)
Time: 16:41:30
(UTC-05:00)

XW-2D - Pass Details

Date: 08 January 2018
Orbit: 510 x 530 km, 97.5° (Epoch: 19 January)

Event Time Altitude Azimuth Distance (km) Brightness Sun altitude
Rises 06:29:52 0° 12° (NNE) 2,650 ? -14.1°
Reaches altitude 10° 06:31:58 10° 13° (NNE) 1,755 ? -13.7°
Maximum altitude 06:35:46 83° 101° (E) 524 ? -12.9°
Drops below altitude 10° 06:39:30 10° 190° (S) 1,730 ? -12.2°
Sets 06:41:34 0° 191° (S) 2,609 ? -11.8°
